Location: Wells
(51.2093°N, 2.6446°W)
Time: 07:26:55
(UTC+01:00)

PCSat - Pass Details

Date: 14 March 2026
Orbit: 780 x 790 km, 67.1° (Epoch: 13 April)

Event Time Altitude Azimuth Distance (km) Brightness Sun altitude
Exits shadow 04:24:11 - 317° (NW) 3,162 12.5 -19.7°
Reaches altitude 10° 04:27:01 10° 335° (NNW) 2,365 12.0 -19.3°
Maximum altitude 04:30:37 18° 17° (NNE) 1,884 12.0 -18.8°
Drops below altitude 10° 04:34:13 10° 59° (ENE) 2,362 13.2 -18.2°
Sets 04:37:28 0° 78° (ENE) 3,289 14.5 -17.8°
